Location: Jackson Park
(37.2862°N, 79.9123°W)
Time: 22:27:22
(UTC+00:00)

Explorer 11/Cluster Stage 4 - Pass Details

Date: 19 May 2026
Orbit: 463 x 1173 km, 28.8° (Epoch: 5 June)

Event Time Altitude Azimuth Distance (km) Brightness Sun altitude
Rises 04:45:46 0° 262° (W) 3,918 10.2 -32.5°
Enters shadow 04:47:54 - 258° (WSW) 3,210 9.6 -32.6°
Reaches altitude 10° 04:48:57 10° 254° (WSW) 2,877 - -32.6°
Maximum altitude 04:55:14 35° 192° (SSW) 1,465 - -32.7°
Drops below altitude 10° 05:00:34 10° 127° (SE) 2,434 - -32.8°
Sets 05:03:03 0° 119° (ESE) 3,248 - -32.9°
